Regional Weather Roundup
Issued by NWS

Home | Current Version | Previous Version | Graphics & Text | Print | Product List | Glossary On
Versions: 1 2 3 4 5 6 7 8 9 10 11 12 13 14 15 16 17 18 19 20 21 22 23 24 25 26 27 28 29 30 31 32 33 34 35 36 37 38 39 40 41 42 43 44 45 46 47 48 49 50
000
ASUS43 KTOP 260108
RWRKS

WEATHER ROUNDUP FOR KANSAS
NATIONAL WEATHER SERVICE GOODLAND KS
800 PM CDT WED APR 25 2018

NOTE:  "FAIR" INDICATES FEW OR NO CLOUDS BELOW 12,000 FEET WITH NO
SIGNIFICANT WEATHER AND/OR OBSTRUCTIONS TO VISIBILITY.

KSZ001>006-013>018-027>032-041>047-260200-
NORTHWEST KANSAS

CITY           SKY/WX    TMP DP  RH WIND       PRES   REMARKS
GOODLAND       CLEAR     56  35  45 S5        30.07F
HAYS           CLEAR     54  36  50 NE8       30.09F
HILL CITY      CLEAR     57  37  47 NE5       30.08F
RUSSELL        CLEAR     52  41  66 NE6       30.08F
$$

KSZ061>065-074>080-084>089-260200-
SOUTHWEST KANSAS

CITY           SKY/WX    TMP DP  RH WIND       PRES   REMARKS
DODGE CITY     CLEAR     55  36  48 N7        30.10S
ELKHART        FAIR      60  36  40 NE6       30.12F
GARDEN CITY    CLEAR     55  34  45 N6        30.09F
LIBERAL        CLEAR     56  35  45 N3        30.12F
PRATT          CLEAR     49  39  68 NE7       30.10F
$$

KSZ066>073-081>083-090>101-260200-
SOUTHEAST KANSAS

CITY           SKY/WX    TMP DP  RH WIND       PRES   REMARKS
CHANUTE        CLOUDY    51  48  89 N13       30.03S
COFFEYVILLE    CLOUDY    52  49  89 NW13      30.02R
HUTCHINSON     CLOUDY    49  43  80 N9        30.10F
MEDICINE LODGE   N/A     51  41  68 N10       30.09F
NEWTON         CLOUDY    46  43  89 N10       30.10F
PARSONS        CLOUDY    51  49  92 N10       30.03R
WICHITA INTL   MOCLDY    48  44  86 N10       30.09F
WICHITA JABRA  CLOUDY    47  45  93 NW12      30.09F
WICHITA MCCONL CLOUDY    48  43  81 N12       30.08
WINFIELD       CLOUDY    47  45  93 N14       30.10S
$$

KSZ007>012-019>026-033>040-048>060-102>105-260200-
NORTHEAST KANSAS

CITY           SKY/WX    TMP DP  RH WIND       PRES   REMARKS
CONCORDIA      CLEAR     50  39  66 CALM      30.09F
EMPORIA        CLOUDY    47  45  93 N8        30.06F
LAWRENCE       CLOUDY    50  48  93 NW3       30.06S
MANHATTAN      MOCLDY    49  43  80 CALM      30.09F
MARYSVILLE     CLEAR     50  41  71 N5        30.09S
OLATHE IND     CLOUDY    49  48  97 N8        30.05S
OLATHE EXE     CLOUDY    48  48 100 N7        30.04S
SALINA         CLOUDY    50  45  83 N6        30.11F
TOPEKA BILLARD CLOUDY    50  48  93 NW5       30.07S
TOPEKA FORBES  CLOUDY    50  48  93 NW6       30.06F
$$




USA.gov is the U.S. government's official web portal to all federal, state and local government web resources and services.